Zurück zum Katalog

DELTA 1 DEB

AktivUNKNOWN
NORAD 40762·DEBRIS·🇺🇸 United States

Gestartet Jul 29, 1976 von Vandenberg Space Force Base

Loading…

Nächste Überflüge (nächste 24 Stunden)

TLE

AktuellSource: Space-Track

Epoche: Sep 14, 2026, 05:05 UTC

1 40762U 76077GF  26257.21187126  .00000122  00000-0  21274-2 0  9999
2 40762 102.3744   3.9799 0327755 249.1646 107.3995 11.83433495550577

Verfolge DELTA 1 DEB in Echtzeit mit AllMySat

Download on the App Store